• In Argentina
  • List of Countries
  • For 7 days
  • Water Temperature
  • Weather Map
  • Weather Widgets
  • user-avatar
    Login

    Hourly Weather Yeghegnadzor

    Today, 31 March, Tuesday

    Time Temperature Precipitation Wind Pressure Humidity
    00:00 +6°C° 0.1 mm 1 mps 644 mmHg 82%
    01:00 +6°C° 0 mm 1 mps 645 mmHg 83%
    02:00 +6°C° 0 mm 1 mps 645 mmHg 83%
    03:00 +6°C° 0 mm 1 mps 645 mmHg 81%
    04:00 +6°C° 0.1 mm 1 mps 646 mmHg 81%
    05:00 +6°C° 0.1 mm 1 mps 646 mmHg 81%
    06:00 +6°C° 0.1 mm 1 mps 647 mmHg 81%
    07:00 +5°C° 0.1 mm 2 mps 647 mmHg 78%
    08:00 +6°C° 0.1 mm 2 mps 647 mmHg 74%
    09:00 +7°C° 0 mm 2 mps 648 mmHg 70%
    10:00 +8°C° 0.1 mm 3 mps 648 mmHg 68%
    11:00 +8°C° 0.1 mm 3 mps 648 mmHg 66%
    12:00 +9°C° 0.1 mm 3 mps 648 mmHg 64%
    13:00 +9°C° 0.1 mm 3 mps 648 mmHg 61%
    14:00 +10°C° 0.1 mm 3 mps 648 mmHg 59%
    15:00 +10°C° 0.1 mm 3 mps 648 mmHg 57%
    16:00 +10°C° 0 mm 2 mps 647 mmHg 58%
    17:00 +9°C° 0 mm 2 mps 647 mmHg 60%
    18:00 +10°C° 0 mm 1 mps 647 mmHg 61%
    19:00 +9°C° 0.1 mm 1 mps 648 mmHg 65%
    20:00 +8°C° 0.1 mm 1 mps 648 mmHg 69%
    21:00 +8°C° 0.1 mm 1 mps 648 mmHg 72%
    22:00 +7°C° 0 mm 1 mps 648 mmHg 73%
    23:00 +7°C° 0 mm 1 mps 648 mmHg 73%

    Tomorrow, 1 April, Wednesday

    Time Temperature Precipitation Wind Pressure Humidity
    00:00 +7°C° 0 mm 1 mps 648 mmHg 74%
    01:00 +7°C° 0 mm 1 mps 648 mmHg 74%
    02:00 +6°C° 0 mm 1 mps 648 mmHg 74%
    03:00 +6°C° 0 mm 1 mps 648 mmHg 74%
    04:00 +6°C° 0 mm 1 mps 648 mmHg 73%
    05:00 +6°C° 0 mm 1 mps 648 mmHg 73%
    06:00 +6°C° 0 mm 1 mps 648 mmHg 72%
    07:00 +6°C° 0 mm 2 mps 648 mmHg 69%
    08:00 +8°C° 0 mm 2 mps 649 mmHg 66%
    09:00 +9°C° 0 mm 2 mps 649 mmHg 63%
    10:00 +9°C° 0.2 mm 2 mps 648 mmHg 68%
    11:00 +9°C° 0.2 mm 2 mps 648 mmHg 74%
    12:00 +9°C° 0.2 mm 2 mps 647 mmHg 79%
    13:00 +9°C° 0.2 mm 2 mps 647 mmHg 77%
    14:00 +9°C° 0.2 mm 2 mps 647 mmHg 74%
    15:00 +10°C° 0.2 mm 2 mps 646 mmHg 71%
    16:00 +10°C° 0.1 mm 2 mps 646 mmHg 73%
    17:00 +9°C° 0.1 mm 2 mps 646 mmHg 74%
    18:00 +9°C° 0.1 mm 2 mps 645 mmHg 75%
    19:00 +9°C° 0.3 mm 2 mps 645 mmHg 77%
    20:00 +8°C° 0.3 mm 2 mps 645 mmHg 80%
    21:00 +8°C° 0.3 mm 2 mps 645 mmHg 82%
    22:00 +8°C° 0.6 mm 2 mps 645 mmHg 84%
    23:00 +8°C° 0.6 mm 2 mps 645 mmHg 87%

    Day after tomorrow, 2 April, Thursday

    Time Temperature Precipitation Wind Pressure Humidity
    00:00 +9°C° 0.6 mm 1 mps 644 mmHg 89%
    01:00 +9°C° 0.7 mm 1 mps 644 mmHg 89%
    02:00 +8°C° 0.7 mm 1 mps 644 mmHg 90%
    03:00 +8°C° 0.7 mm 1 mps 644 mmHg 91%
    04:00 +8°C° 0.6 mm 1 mps 644 mmHg 92%
    05:00 +8°C° 0.6 mm 1 mps 644 mmHg 93%
    06:00 +8°C° 0.6 mm 1 mps 645 mmHg 94%
    07:00 +8°C° 1.5 mm 1 mps 645 mmHg 93%
    08:00 +8°C° 1.5 mm 1 mps 645 mmHg 93%
    09:00 +7°C° 1.5 mm 2 mps 646 mmHg 93%
    10:00 +7°C° 0.3 mm 2 mps 646 mmHg 88%
    11:00 +8°C° 0.3 mm 2 mps 646 mmHg 83%
    12:00 +9°C° 0.3 mm 2 mps 646 mmHg 78%
    13:00 +10°C° 0.3 mm 2 mps 646 mmHg 75%
    14:00 +10°C° 0.3 mm 2 mps 646 mmHg 73%
    15:00 +11°C° 0.3 mm 1 mps 646 mmHg 71%
    16:00 +11°C° 0.3 mm 1 mps 646 mmHg 72%
    17:00 +10°C° 0.3 mm 1 mps 646 mmHg 73%
    18:00 +10°C° 0.3 mm 1 mps 646 mmHg 75%
    19:00 +9°C° 0 mm 1 mps 647 mmHg 75%
    20:00 +9°C° 0 mm 1 mps 647 mmHg 76%
    21:00 +7°C° 0 mm 2 mps 648 mmHg 76%
    22:00 +8°C° 0.1 mm 1 mps 648 mmHg 77%
    23:00 +8°C° 0.1 mm 1 mps 648 mmHg 78%

    3 April, Friday

    Time Temperature Precipitation Wind Pressure Humidity
    00:00 +8°C° 0.1 mm 1 mps 648 mmHg 79%
    01:00 +8°C° 0 mm 1 mps 648 mmHg 80%
    02:00 +7°C° 0 mm 1 mps 648 mmHg 81%
    03:00 +7°C° 0 mm 1 mps 648 mmHg 82%
    04:00 +7°C° 0 mm 1 mps 648 mmHg 82%
    05:00 +7°C° 0 mm 1 mps 648 mmHg 82%
    06:00 +6°C° 0 mm 1 mps 648 mmHg 83%
    07:00 +8°C° 0 mm 1 mps 649 mmHg 78%
    08:00 +9°C° 0 mm 1 mps 649 mmHg 74%
    09:00 +11°C° 0 mm 1 mps 650 mmHg 70%
    10:00 +11°C° 0.3 mm 1 mps 650 mmHg 68%
    11:00 +12°C° 0.3 mm 2 mps 649 mmHg 67%
    12:00 +12°C° 0.3 mm 2 mps 649 mmHg 66%
    13:00 +12°C° 0.5 mm 2 mps 649 mmHg 65%
    14:00 +13°C° 0.5 mm 2 mps 649 mmHg 64%
    15:00 +13°C° 0.5 mm 2 mps 649 mmHg 63%
    16:00 +12°C° 0.3 mm 2 mps 648 mmHg 64%
    17:00 +12°C° 0.3 mm 2 mps 648 mmHg 65%
    18:00 +12°C° 0.3 mm 1 mps 648 mmHg 67%
    19:00 +11°C° 0.1 mm 1 mps 649 mmHg 68%
    20:00 +10°C° 0.1 mm 1 mps 649 mmHg 70%
    21:00 +9°C° 0.1 mm 2 mps 649 mmHg 71%
    22:00 +9°C° 0.1 mm 2 mps 649 mmHg 74%
    23:00 +8°C° 0.1 mm 2 mps 649 mmHg 76%

    4 April, Saturday

    Time Temperature Precipitation Wind Pressure Humidity
    00:00 +8°C° 0.1 mm 2 mps 649 mmHg 79%
    01:00 +8°C° 0.1 mm 2 mps 649 mmHg 80%
    02:00 +8°C° 0.1 mm 2 mps 649 mmHg 80%
    03:00 +8°C° 0.1 mm 2 mps 649 mmHg 81%
    04:00 +7°C° 0.5 mm 2 mps 649 mmHg 84%
    05:00 +7°C° 0.5 mm 2 mps 649 mmHg 87%
    06:00 +8°C° 0.5 mm 1 mps 649 mmHg 90%
    07:00 +9°C° 0.5 mm 1 mps 649 mmHg 86%
    08:00 +9°C° 0.5 mm 1 mps 649 mmHg 81%
    09:00 +10°C° 0.5 mm 1 mps 650 mmHg 77%
    10:00 +10°C° 0.4 mm 1 mps 650 mmHg 71%
    11:00 +10°C° 0.4 mm 2 mps 650 mmHg 66%
    12:00 +12°C° 0.4 mm 2 mps 650 mmHg 61%
    13:00 +12°C° 0.6 mm 2 mps 650 mmHg 60%
    14:00 +11°C° 0.6 mm 3 mps 650 mmHg 58%
    15:00 +11°C° 0.6 mm 3 mps 650 mmHg 57%
    16:00 +10°C° 0.6 mm 2 mps 650 mmHg 60%
    17:00 +9°C° 0.6 mm 2 mps 650 mmHg 64%
    18:00 +10°C° 0.6 mm 1 mps 650 mmHg 67%
    19:00 +9°C° 0.2 mm 1 mps 650 mmHg 70%
    20:00 +8°C° 0.2 mm 1 mps 651 mmHg 72%
    21:00 +7°C° 0.2 mm 0 mps 651 mmHg 75%
    22:00 +8°C° 0.1 mm 1 mps 652 mmHg 76%
    23:00 +7°C° 0.1 mm 1 mps 652 mmHg 76%

    5 April, Sunday

    Time Temperature Precipitation Wind Pressure Humidity
    00:00 +7°C° 0.1 mm 1 mps 652 mmHg 77%
    01:00 +7°C° 0 mm 1 mps 652 mmHg 78%
    02:00 +6°C° 0 mm 1 mps 652 mmHg 78%
    03:00 +6°C° 0 mm 1 mps 652 mmHg 79%
    04:00 +5°C° 0 mm 1 mps 653 mmHg 79%
    05:00 +5°C° 0 mm 1 mps 653 mmHg 79%
    06:00 +5°C° 0 mm 1 mps 653 mmHg 79%
    07:00 +6°C° 0 mm 1 mps 653 mmHg 72%
    08:00 +8°C° 0 mm 1 mps 654 mmHg 66%
    09:00 +9°C° 0 mm 1 mps 654 mmHg 59%
    10:00 +10°C° 0 mm 1 mps 654 mmHg 58%
    11:00 +10°C° 0 mm 2 mps 654 mmHg 56%
    12:00 +10°C° 0 mm 2 mps 654 mmHg 54%
    13:00 +12°C° 0 mm 2 mps 654 mmHg 53%
    14:00 +12°C° 0 mm 2 mps 654 mmHg 52%
    15:00 +13°C° 0 mm 2 mps 653 mmHg 51%
    16:00 +12°C° 0 mm 1 mps 653 mmHg 52%
    17:00 +12°C° 0 mm 1 mps 653 mmHg 52%
    18:00 +11°C° 0 mm 1 mps 653 mmHg 53%
    19:00 +10°C° 0 mm 1 mps 653 mmHg 56%
    20:00 +9°C° 0 mm 1 mps 654 mmHg 59%
    21:00 +8°C° 0 mm 1 mps 654 mmHg 62%
    22:00 +8°C° 0 mm 1 mps 654 mmHg 62%
    23:00 +8°C° 0 mm 1 mps 653 mmHg 62%
    Show more